Showing default

TSAT-1A, 59442

Orbit data source: Space-Track

TSAT-1A, 59442 is a payload satellite owned by TASL (IN) in LEO that was launched on Sun, 07 Apr 2024 UTC via an FALCON 9 launch vehicle from the Air Force Eastern Test Range (AFETR). Payload-class satellites include a variety of spacecraft equipped with specific instruments for various scientific and technological missions. These include communications satellites like Starlink; space stations such as the ISS; scientific satellites like the Hubble; Earth observation satellites from companies like Planet Labs, Umbra, and HawkEye 360; GPS; miniature CubeSats for education and research; and military/defense satellites.

Loading next visibility...
Identifier
59442, 2024-066A
Orbit
LEO
Country
Flag of ININ / IND
Related business
Manufacturer
URUGUS S.A.
Mission
Operational Commercial Imaging
Bus & Motor
NEWSAT V, Unknown motor
Mass
~42 kg wet, ~38 kg dry
Launch date (UTC)
2024-04-07 (2 years ago)
Launch vehicle
FALCON 9
Launch site
Air Force Eastern Test Range (AFETR)
Object type
Payload
Rocket body
Debris
Shape & HBR
Box, 0.4 m
Radar Cross Section
0.542 m², Medium (>0.1 m² and < 1m²)

Expand to show TLE details & history
Last TLE update: 1 day ago

TLE from 1 day ago
0 TSAT-1A
1 59442U 24066A   25293.59488571  .00018744  00000-0  67063-3 0  9999
2 59442  45.6213 343.7641 0011318 226.7280 133.2670 15.28546954 85022
Epoch: 2025-10-20T14:16Z
TLE epoch observation values (Epoch: 2025-10-20T14:16:38.125Z)
Latitude
0.00004°
Longitude
100.31034°
Altitude
485.548 km
Speed
7.621 km/s
True Right ascension
22h 55m 03s
True Declination
0° 00' 00"
Sunlit
Object was in full shadow at epoch
Visualization orbit readout
Latitude
Unknown
Longitude
Unknown
Altitude
Unknown
Speed
Unknown
Apparent Right ascension
Unknown
Apparent Declination
Unknown
Sunlit
N/A
Visualization observer readout
Local Sidereal Time
09:14:18
Azimuth
Unknown
Elevation
Unknown
Doppler factor
Unknown
Orbital elements
Apogee altitude
489.425 km
Perigee altitude
473.897 km
Semi-major axis
6,859.798 km
Eccentricity
0.00113
Inclination
45.6213°
RAAN
343.7641°
Arg. of periapsis
226.728°
True anomaly
133.36135°
Mean anomaly
133.267°
Eccentric anomaly
133.31418°
Mean motion
3.82011 °/min
Orbital period
94.24 mins
BSTAR
0.00067063
Loading maneuver chart data...
Computing Atmospheric mass density...
Loading historical data...
Loading historical data...
Loading historical data...
Loading historical data...
Loading historical data...
Loading historical data...
Loading historical data...

Documentation

Showing up to 5 results
|